Regional Weather Roundup
Issued by NWS

Home | Current Version | Previous Version | Text Only | Print | Product List | Glossary On
Versions: 1 2 3 4 5 6 7 8 9 10 11 12 13 14 15 16 17 18 19 20 21 22 23 24 25 26 27 28 29 30 31 32 33 34 35 36 37 38 39 40 41 42 43 44 45 46 47 48 49 50
000
ASUS45 KBOU 110407
RWRCO

WEATHER ROUNDUP FOR COLORADO
NATIONAL WEATHER SERVICE DENVER/BOULDER CO
900 PM MST WED FEB 10 2016

NOTE: "FAIR" INDICATES FEW OR NO CLOUDS BELOW 12000 FEET WITH NO
SIGNIFICANT WEATHER AND/OR OBSTRUCTIONS TO VISIBILITY.

COZ001>005-013-030-031-110500-
...NORTHWEST COLORADO...

CITY           SKY/WX    TMP DP  RH WIND       PRES   REMARKS
CRAIG          CLOUDY     4   2  91 CALM      30.37F
HAYDEN         CLOUDY    21  16  79 E3        30.35F
MEEKER         CLOUDY    19  13  77 CALM      30.36S
MOUNT WERNER   NOT AVBL
STEAMBOAT SPGS NOT AVBL
WALDEN         CLOUDY    23   9  54 SE10      30.36S WCI  12
$$

COZ006>008-011-110500-
...WEST CENTRAL VALLEYS...

CITY           SKY/WX    TMP DP  RH WIND       PRES   REMARKS
GRAND JUNCTION CLOUDY    30  25  81 SW3       30.39R
MONTROSE       CLOUDY    26  21  81 SE9       30.42R WCI  17
EAGLE          CLEAR     27  18  69 SE3       30.38R
RIFLE          CLOUDY    23  16  74 SE7       30.40R WCI  15
DELTA          CLOUDY    32  27  80 NE7       30.40S WCI  26
NUCLA          CLOUDY    32  23  69 SE7       30.41S WCI  26
$$

COZ017>023-064>068-110500-
...SOUTHWEST COLORADO...

CITY           SKY/WX    TMP DP  RH WIND       PRES   REMARKS
DURANGO        CLOUDY    30  21  69 N10       30.36S WCI  21
CORTEZ         CLOUDY    28  22  78 E9        30.37R WCI  19
PAGOSA SPRINGS CLOUDY    26  18  71 CALM      30.38S
TELLURIDE      CLOUDY    34   7  32 SE6       30.46R WCI  29
WOLF CREEK PAS NOT AVBL
$$

COZ009-010-012-014-032>034-037-058>063-110500-
...CENTRAL COLORADO...

CITY           SKY/WX    TMP DP  RH WIND       PRES   REMARKS
ASPEN          CLOUDY    25  13  60 SW9       30.39R WCI  15
BUENA VISTA    CLOUDY    34  10  37 N5        30.33R WCI  30
COPPER MTN     NOT AVBL
BERTHOUD PASS  FAIR      16   5  62 NW28G33   30.40R WCI  -4
COTTONWOOD PAS CLOUDY    41 -17   8 W14G29    30.37R
GUNNISON       CLOUDY     0   0 100 CALM      30.49R
KREMMLING      CLOUDY     1  -4  78 CALM      30.42R
LEADVILLE      CLOUDY    29   2  31 NW9       30.39R WCI  20
MONARCH PASS   CLOUDY    27   1  33 W38       30.53F WCI   9
SALIDA         NOT AVBL
SUNLIGHT       CLOUDY    30  10  43 CALM        N/A
WILKERSON PASS CLOUDY    32  -6  19 NW10G24   30.43R WCI  24
$$

COZ069>075-110500-
...SAN LUIS VALLEY/SANGRE DE CRISTO MOUNTAINS...

CITY           SKY/WX    TMP DP  RH WIND       PRES   REMARKS
ALAMOSA        CLOUDY    28  22  78 NW5       30.35R WCI  23
LA VETA PASS   CLOUDY    32  10  40 MISG      30.37F
SAGUACHE       NOT AVBL
$$

COZ035-036-038>040-110500-
...NORTHERN COLORADO FRONT RANGE...

CITY           SKY/WX    TMP DP  RH WIND       PRES   REMARKS
DENVER INTL AP CLOUDY    50  13  22 W6        30.18R
DMNS CITY PARK   N/A     52   6  15 NW6G12    30.18S
AURORA         NOT AVBL
FRONT RANGE AP NOT AVBL
ERIE MUNI ARPT CLOUDY    37  22  53 CALM      30.17R
BOULDER MUN AP NOT AVBL
CENTENNIAL     CLOUDY    48  12  23 VRB3      30.19R
BROOMFIELD     MOCLDY    50   9  18 CALM      30.19R
FORT COLLINS   CLOUDY    52  16  24 N14G23    30.17S
LONGMONT       NOT AVBL
$$

COZ041-046-047-076>085-087-088-110500-
...PIKES PEAK/PALMER DIVIDE AND SOUTHERN FOOTHILLS...

CITY           SKY/WX    TMP DP  RH WIND       PRES   REMARKS
COLO. SPRINGS  CLOUDY    50  12  21 NW12      30.20S
A. F. ACADEMY  CLOUDY    39  20  48 NE10      30.20S
SCHRIEVER AFB  MOCLDY    47  16  29 NW15      30.20R
ELLICOTT       CLOUDY   N/A N/A N/A N14       30.18S
FALCON         NOT AVBL
FORT CARSON    CLOUDY    49  19  30 NW9       30.17S
LIMON          CLOUDY    37  26  64 NW5       30.18R
MONUMENT HILL  CLOUDY    37  18  44 W5        30.25R
TRINIDAD       CLOUDY    49   6  17 W12       30.18R
$$

COZ042>045-048>051-090-091-110500-
...NORTHEAST COLORADO...

CITY           SKY/WX    TMP DP  RH WIND       PRES   REMARKS
GREELEY ARPT   CLOUDY    41  23  48 CALM      30.18R
AKRON          CLOUDY    39  25  57 NW13      30.14R
BURLINGTON     CLOUDY    38  25  59 W9        30.13R
WRAY           NOT AVBL
STERLING       CLOUDY    39  28  65 NW15      30.12S
HOLYOKE        NOT AVBL
FORT MORGAN    CLOUDY    42  21  44 N20       30.16R
$$

COZ086-089-092>099-110500-
...SOUTHEAST COLORADO...

CITY           SKY/WX    TMP DP  RH WIND       PRES   REMARKS
PUEBLO         CLOUDY    51  17  26 W9        30.12S
LA JUNTA       CLOUDY    49  27  42 N10       30.13R
LAMAR          CLOUDY    45  22  40 SE7       30.10R
SPRINGFIELD      N/A     35  17  47 MISG      30.13R
$$



USA.gov is the U.S. government's official web portal to all federal, state and local government web resources and services.